BAW820 EGLL-EKCH

Flight info

Callsign BAW820
Flight time 1h 38m
Altitude 37000
Route BPK Q295 PAAVO M604 GIVPO DCT VENAS DCT LARGA DCT SOPTO DCT DOREV DCT TESPI
Aircraft A320/M-SDE3FGHIRWY/LB1

Departure

Time 2026-04-21 17:16
Airport London Heathrow Airport (EGLL)

Arrival

Time 2026-04-21 18:55
Airport Copenhagen Kastrup Airport (EKCH)
Time Latitude Longitude Altitude Speed Heading
2026-04-21 16:37 51.47404 -0.48829 86 ft 0 kts 180°
2026-04-21 16:54 51.47405 -0.48829 86 ft 0 kts 180°
2026-04-21 16:54 51.47417 -0.48829 89 ft 3 kts 180°
2026-04-21 16:55 51.47437 -0.48829 86 ft 3 kts 180°
2026-04-21 16:55 51.47456 -0.48829 86 ft 3 kts 174°
2026-04-21 16:55 51.47474 -0.48837 88 ft 3 kts 139°
2026-04-21 16:55 51.47485 -0.48859 87 ft 2 kts 105°
2026-04-21 16:56 51.47489 -0.48882 89 ft 2 kts 103°
2026-04-21 16:56 51.47490 -0.48894 86 ft 0 kts 103°
2026-04-21 17:01 51.47490 -0.48893 86 ft 0 kts 103°
2026-04-21 17:01 51.47489 -0.48884 90 ft 4 kts 103°
2026-04-21 17:01 51.47486 -0.48822 89 ft 6 kts 91°
2026-04-21 17:02 51.47486 -0.48781 89 ft 6 kts 89°
2026-04-21 17:02 51.47487 -0.48696 88 ft 9 kts 89°
2026-04-21 17:02 51.47486 -0.48539 87 ft 12 kts 95°
2026-04-21 17:02 51.47414 -0.48476 86 ft 14 kts 181°
2026-04-21 17:03 51.47306 -0.48474 86 ft 17 kts 179°
2026-04-21 17:03 51.47180 -0.48473 86 ft 19 kts 180°
2026-04-21 17:03 51.47085 -0.48472 88 ft 21 kts 179°
2026-04-21 17:03 51.46944 -0.48471 87 ft 17 kts 180°
2026-04-21 17:04 51.46848 -0.48471 86 ft 13 kts 180°
2026-04-21 17:04 51.46767 -0.48470 86 ft 11 kts 181°
2026-04-21 17:04 51.46708 -0.48470 86 ft 7 kts 179°
2026-04-21 17:04 51.46705 -0.48469 86 ft 0 kts 179°
2026-04-21 17:05 51.46701 -0.48469 86 ft 3 kts 179°
2026-04-21 17:05 51.46671 -0.48468 86 ft 6 kts 179°
2026-04-21 17:05 51.46623 -0.48467 86 ft 8 kts 180°
2026-04-21 17:05 51.46590 -0.48467 86 ft 1 kts 180°
2026-04-21 17:12 51.46579 -0.48467 89 ft 4 kts 180°
2026-04-21 17:12 51.46545 -0.48467 86 ft 6 kts 180°
2026-04-21 17:12 51.46496 -0.48453 88 ft 8 kts 151°
2026-04-21 17:13 51.46479 -0.48376 88 ft 6 kts 91°
2026-04-21 17:13 51.46479 -0.48372 88 ft 0 kts 90°
2026-04-21 17:15 51.46479 -0.48325 88 ft 17 kts 90°
2026-04-21 17:15 51.46480 -0.47801 87 ft 80 kts 90°
2026-04-21 17:16 51.46484 -0.46608 91 ft 131 kts 90°
2026-04-21 17:16 51.46485 -0.45035 506 ft 140 kts 88°
2026-04-21 17:16 51.46497 -0.43461 1177 ft 141 kts 86°
2026-04-21 17:16 51.46559 -0.41825 1589 ft 156 kts 76°
2026-04-21 17:17 51.47128 -0.40213 1844 ft 180 kts 51°
2026-04-21 17:17 51.48004 -0.38575 2187 ft 206 kts 51°
2026-04-21 17:17 51.48971 -0.36737 2730 ft 228 kts 52°
2026-04-21 17:17 51.50007 -0.34759 3646 ft 234 kts 52°
2026-04-21 17:18 51.51062 -0.32742 4617 ft 238 kts 53°
2026-04-21 17:18 51.52089 -0.30626 5524 ft 242 kts 63°
2026-04-21 17:18 51.52715 -0.28098 6436 ft 245 kts 72°
2026-04-21 17:18 51.53272 -0.25479 7319 ft 250 kts 73°
2026-04-21 17:19 51.53835 -0.22804 8190 ft 254 kts 73°
2026-04-21 17:19 51.54589 -0.20200 9016 ft 263 kts 52°
2026-04-21 17:19 51.56124 -0.18514 9817 ft 277 kts 22°
2026-04-21 17:19 51.58015 -0.17712 10615 ft 288 kts 18°
2026-04-21 17:20 51.60050 -0.17143 10876 ft 314 kts
2026-04-21 17:20 51.62268 -0.16564 11229 ft 330 kts 15°
2026-04-21 17:20 51.64529 -0.15689 11900 ft 334 kts 18°
2026-04-21 17:20 51.66784 -0.14661 12630 ft 338 kts 19°
2026-04-21 17:21 51.69052 -0.13555 13334 ft 342 kts 20°
2026-04-21 17:21 51.71229 -0.12127 14027 ft 342 kts 33°
2026-04-21 17:21 51.73130 -0.09810 14615 ft 344 kts 47°
2026-04-21 17:21 51.74604 -0.06764 15256 ft 345 kts 61°
2026-04-21 17:22 51.75539 -0.03197 15841 ft 348 kts 75°
2026-04-21 17:22 51.75940 0.00682 16361 ft 352 kts 82°
2026-04-21 17:22 51.76258 0.04609 17033 ft 354 kts 81°
2026-04-21 17:22 51.76581 0.08585 17597 ft 359 kts 81°
2026-04-21 17:23 51.76908 0.12608 18178 ft 363 kts 81°
2026-04-21 17:23 51.77241 0.16667 18760 ft 367 kts 81°
2026-04-21 17:23 51.77580 0.20788 19219 ft 373 kts 80°
2026-04-21 17:23 51.77923 0.24982 19693 ft 379 kts 79°
2026-04-21 17:24 51.78268 0.29240 20154 ft 385 kts 80°
2026-04-21 17:24 51.78617 0.33563 20622 ft 391 kts 79°
2026-04-21 17:24 51.78968 0.37954 21078 ft 396 kts 79°
2026-04-21 17:24 51.79317 0.42336 21526 ft 401 kts 79°
2026-04-21 17:25 51.79675 0.46825 21975 ft 406 kts 79°
2026-04-21 17:25 51.80037 0.51369 22482 ft 408 kts 80°
2026-04-21 17:25 51.80395 0.55938 23052 ft 410 kts 79°
2026-04-21 17:25 51.80751 0.60531 23530 ft 414 kts 79°
2026-04-21 17:26 51.81275 0.65091 24081 ft 411 kts 72°
2026-04-21 17:26 51.82215 0.69446 24516 ft 410 kts 64°
2026-04-21 17:26 51.83329 0.73719 24903 ft 414 kts 64°
2026-04-21 17:26 51.84447 0.78026 25277 ft 417 kts 64°
2026-04-21 17:27 51.85675 0.82294 25648 ft 418 kts 57°
2026-04-21 17:27 51.87281 0.86197 26015 ft 416 kts 47°
2026-04-21 17:27 51.89246 0.89627 26386 ft 414 kts 38°
2026-04-21 17:27 51.91392 0.92737 26768 ft 416 kts 37°
2026-04-21 17:28 51.93529 0.95835 27151 ft 418 kts 36°
2026-04-21 17:28 51.95702 0.98991 27580 ft 420 kts 37°
2026-04-21 17:28 51.97885 1.02174 27990 ft 422 kts 37°
2026-04-21 17:28 52.00074 1.05374 28392 ft 425 kts 37°
2026-04-21 17:29 52.02274 1.08596 28788 ft 427 kts 37°
2026-04-21 17:29 52.04488 1.11842 29155 ft 430 kts 36°
2026-04-21 17:29 52.06821 1.14850 29508 ft 429 kts 31°
2026-04-21 17:29 52.09219 1.17768 29881 ft 431 kts 31°
2026-04-21 17:30 52.11633 1.20711 30245 ft 434 kts 31°
2026-04-21 17:30 52.14036 1.23743 30582 ft 438 kts 33°
2026-04-21 17:30 52.16404 1.26892 30927 ft 440 kts 34°
2026-04-21 17:30 52.18742 1.30110 31381 ft 440 kts 34°
2026-04-21 17:31 52.21063 1.33349 31828 ft 439 kts 35°
2026-04-21 17:31 52.23385 1.36587 32270 ft 439 kts 35°
2026-04-21 17:31 52.25682 1.39768 32708 ft 438 kts 34°
2026-04-21 17:31 52.28017 1.42977 33170 ft 437 kts 35°
2026-04-21 17:32 52.29593 1.45132 33458 ft 437 kts 35°
2026-04-21 17:32 52.32688 1.49356 34062 ft 437 kts 36°
2026-04-21 17:32 52.34911 1.52786 34490 ft 439 kts 41°
2026-04-21 17:32 52.37050 1.56362 34875 ft 439 kts 42°
2026-04-21 17:33 52.39182 1.59937 35222 ft 439 kts 42°
2026-04-21 17:33 52.41310 1.63513 35563 ft 439 kts 42°
2026-04-21 17:33 52.43440 1.67099 35896 ft 439 kts 42°
2026-04-21 17:33 52.45568 1.70691 36224 ft 439 kts 43°
2026-04-21 17:34 52.47664 1.74239 36544 ft 439 kts 43°
2026-04-21 17:34 52.49788 1.77840 36854 ft 439 kts 43°
2026-04-21 17:34 52.51914 1.81448 37159 ft 439 kts 43°
2026-04-21 17:34 52.54042 1.85059 37327 ft 440 kts 43°
2026-04-21 17:35 52.58316 1.92322 37363 ft 442 kts 43°
2026-04-21 17:35 52.62597 1.99604 37363 ft 442 kts 43°
2026-04-21 17:36 52.66864 2.06893 37371 ft 441 kts 44°
2026-04-21 17:36 52.71086 2.14139 37361 ft 441 kts 44°
2026-04-21 17:37 52.75336 2.21461 37376 ft 441 kts 44°
2026-04-21 17:37 52.79577 2.28786 37380 ft 441 kts 44°
2026-04-21 17:38 52.83821 2.36133 37380 ft 441 kts 44°
2026-04-21 17:38 52.88033 2.43446 37383 ft 441 kts 44°
2026-04-21 17:39 52.92261 2.50821 37386 ft 441 kts 44°
2026-04-21 17:39 52.96494 2.58208 37398 ft 441 kts 43°
2026-04-21 17:40 53.01363 2.64226 37392 ft 435 kts 25°
2026-04-21 17:40 53.06789 2.68706 37394 ft 435 kts 25°
2026-04-21 17:41 53.12183 2.73188 37384 ft 436 kts 25°
2026-04-21 17:41 53.17616 2.77716 37388 ft 436 kts 25°
2026-04-21 17:42 53.23038 2.82250 37392 ft 436 kts 26°
2026-04-21 17:42 53.28468 2.86804 37397 ft 436 kts 26°
2026-04-21 17:43 53.33959 2.91120 37403 ft 436 kts 23°
2026-04-21 17:43 53.39535 2.95185 37404 ft 436 kts 22°
2026-04-21 17:44 53.45099 2.99261 37407 ft 436 kts 23°
2026-04-21 17:44 53.50636 3.03443 37408 ft 436 kts 24°
2026-04-21 17:45 53.56168 3.07679 37415 ft 436 kts 24°
2026-04-21 17:45 53.61662 3.11857 37430 ft 436 kts 24°
2026-04-21 17:46 53.67169 3.16044 37427 ft 436 kts 24°
2026-04-21 17:46 53.72700 3.20260 37421 ft 436 kts 24°
2026-04-21 17:47 53.78229 3.24490 37415 ft 436 kts 25°
2026-04-21 17:47 53.82822 3.28026 37414 ft 436 kts 25°
2026-04-21 17:48 53.88342 3.32288 37415 ft 436 kts 25°
2026-04-21 17:48 53.93873 3.36556 37421 ft 436 kts 25°
2026-04-21 17:49 53.99398 3.40832 37416 ft 436 kts 25°
2026-04-21 17:49 54.04888 3.45113 37424 ft 437 kts 25°
2026-04-21 17:50 54.10409 3.49420 37416 ft 437 kts 25°
2026-04-21 17:50 54.15943 3.53740 37419 ft 437 kts 25°
2026-04-21 17:51 54.21474 3.58072 37421 ft 437 kts 25°
2026-04-21 17:51 54.27008 3.62428 37426 ft 438 kts 25°
2026-04-21 17:52 54.32500 3.66824 37433 ft 438 kts 27°
2026-04-21 17:52 54.37933 3.71586 37433 ft 438 kts 28°
2026-04-21 17:53 54.43309 3.76492 37436 ft 438 kts 29°
2026-04-21 17:53 54.48704 3.81379 37423 ft 438 kts 28°
2026-04-21 17:54 54.54120 3.86224 37430 ft 439 kts 28°
2026-04-21 17:54 54.59557 3.91070 37441 ft 439 kts 28°
2026-04-21 17:55 54.64990 3.95929 37440 ft 440 kts 28°
2026-04-21 17:55 54.70415 4.00833 37441 ft 440 kts 29°
2026-04-21 17:56 54.75839 4.05751 37439 ft 440 kts 29°
2026-04-21 17:56 54.81232 4.10656 37447 ft 440 kts 29°
2026-04-21 17:57 54.86487 4.16083 37448 ft 439 kts 40°
2026-04-21 17:57 54.90775 4.23582 37452 ft 437 kts 48°
2026-04-21 17:58 54.94885 4.31392 37442 ft 438 kts 49°
2026-04-21 17:58 54.99007 4.39213 37453 ft 438 kts 48°
2026-04-21 17:59 55.03103 4.46997 37457 ft 438 kts 49°
2026-04-21 17:59 55.07199 4.54848 37459 ft 438 kts 49°
2026-04-21 18:00 55.11295 4.62718 37460 ft 437 kts 49°
2026-04-21 18:00 55.15402 4.70592 37461 ft 437 kts 49°
2026-04-21 18:01 55.19492 4.78478 37453 ft 437 kts 49°
2026-04-21 18:01 55.23546 4.86339 37449 ft 437 kts 49°
2026-04-21 18:02 55.27614 4.94291 37454 ft 437 kts 52°
2026-04-21 18:02 55.30623 5.03472 37455 ft 435 kts 71°
2026-04-21 18:03 55.31927 5.13812 37443 ft 434 kts 80°
2026-04-21 18:03 55.32943 5.24286 37443 ft 435 kts 80°
2026-04-21 18:04 55.33963 5.34765 37447 ft 435 kts 80°
2026-04-21 18:04 55.34970 5.45247 37449 ft 435 kts 81°
2026-04-21 18:05 55.35956 5.55677 37448 ft 435 kts 81°
2026-04-21 18:05 55.36949 5.66192 37447 ft 435 kts 81°
2026-04-21 18:06 55.37929 5.76715 37447 ft 435 kts 81°
2026-04-21 18:06 55.38896 5.87236 37442 ft 435 kts 81°
2026-04-21 18:07 55.39847 5.97681 37440 ft 435 kts 81°
2026-04-21 18:07 55.40797 6.08216 37441 ft 435 kts 81°
2026-04-21 18:08 55.41739 6.18737 37447 ft 435 kts 81°
2026-04-21 18:08 55.42678 6.29252 37443 ft 434 kts 81°
2026-04-21 18:09 55.43601 6.39763 37441 ft 434 kts 81°
2026-04-21 18:09 55.44505 6.50210 37439 ft 434 kts 81°
2026-04-21 18:10 55.45405 6.60725 37441 ft 434 kts 81°
2026-04-21 18:10 55.46298 6.71240 37438 ft 434 kts 81°
2026-04-21 18:11 55.47184 6.81768 37437 ft 433 kts 81°
2026-04-21 18:11 55.48055 6.92267 37432 ft 433 kts 81°
2026-04-21 18:12 55.48923 7.02782 37434 ft 433 kts 81°
2026-04-21 18:12 55.49768 7.13218 37430 ft 433 kts 82°
2026-04-21 18:13 55.50612 7.23737 37425 ft 432 kts 82°
2026-04-21 18:13 55.51447 7.34244 37430 ft 433 kts 81°
2026-04-21 18:14 55.52689 7.50032 37422 ft 433 kts 82°
2026-04-21 18:15 55.53625 7.60528 37416 ft 432 kts 76°
2026-04-21 18:15 55.55038 7.70859 37416 ft 432 kts 76°
2026-04-21 18:16 55.56447 7.81178 37421 ft 432 kts 76°
2026-04-21 18:16 55.57835 7.91494 37424 ft 431 kts 76°
2026-04-21 18:17 55.59198 8.01762 37420 ft 431 kts 76°
2026-04-21 18:17 55.60566 8.12076 37416 ft 431 kts 76°
2026-04-21 18:18 55.61930 8.22400 37410 ft 431 kts 76°
2026-04-21 18:18 55.63279 8.32734 37409 ft 431 kts 77°
2026-04-21 18:19 55.64620 8.43075 37420 ft 431 kts 76°
2026-04-21 18:19 55.65957 8.53404 37417 ft 430 kts 76°
2026-04-21 18:20 55.67274 8.63669 37412 ft 429 kts 77°
2026-04-21 18:20 55.68585 8.73999 37411 ft 429 kts 77°
2026-04-21 18:21 55.69887 8.84323 37406 ft 429 kts 77°
2026-04-21 18:21 55.71184 8.94651 37401 ft 429 kts 77°
2026-04-21 18:22 55.72469 9.04986 37413 ft 429 kts 77°
2026-04-21 18:22 55.73744 9.15309 37402 ft 428 kts 77°
2026-04-21 18:23 55.75004 9.25636 37399 ft 428 kts 77°
2026-04-21 18:23 55.76255 9.35958 37403 ft 428 kts 77°
2026-04-21 18:24 55.77503 9.46303 37415 ft 428 kts 77°
2026-04-21 18:24 55.78733 9.56580 37407 ft 427 kts 77°
2026-04-21 18:25 55.79969 9.66929 37377 ft 428 kts 77°
2026-04-21 18:25 55.80579 9.72093 37110 ft 426 kts 77°
2026-04-21 18:25 55.81181 9.77244 36681 ft 425 kts 77°
2026-04-21 18:25 55.81782 9.82398 35984 ft 427 kts 77°
2026-04-21 18:26 55.82384 9.87570 35268 ft 428 kts 77°
2026-04-21 18:26 55.82991 9.92773 34532 ft 430 kts 77°
2026-04-21 18:26 55.83599 9.98011 33677 ft 432 kts 77°
2026-04-21 18:26 55.84205 10.03250 32786 ft 433 kts 78°
2026-04-21 18:27 55.84805 10.08470 32202 ft 428 kts 78°
2026-04-21 18:27 55.85396 10.13630 31606 ft 423 kts 78°
2026-04-21 18:27 55.85977 10.18723 31069 ft 417 kts 78°
2026-04-21 18:27 55.86541 10.23688 30530 ft 412 kts 77°
2026-04-21 18:28 55.87102 10.28646 29930 ft 405 kts 78°
2026-04-21 18:28 55.87651 10.33521 29391 ft 398 kts 78°
2026-04-21 18:28 55.88184 10.38312 28887 ft 391 kts 78°
2026-04-21 18:28 55.88705 10.43021 28376 ft 384 kts 78°
2026-04-21 18:29 55.89216 10.47648 27866 ft 378 kts 78°
2026-04-21 18:29 55.89520 10.52266 27371 ft 374 kts 87°
2026-04-21 18:29 55.89361 10.56869 26829 ft 372 kts 96°
2026-04-21 18:29 55.88840 10.61379 26303 ft 369 kts 99°
2026-04-21 18:30 55.88295 10.65831 25797 ft 366 kts 99°
2026-04-21 18:30 55.87753 10.70242 25298 ft 363 kts 99°
2026-04-21 18:30 55.87217 10.74621 24817 ft 360 kts 99°
2026-04-21 18:30 55.86690 10.78972 24345 ft 357 kts 99°
2026-04-21 18:31 55.86163 10.83285 23881 ft 355 kts 99°
2026-04-21 18:31 55.85638 10.87559 23387 ft 351 kts 99°
2026-04-21 18:31 55.85120 10.91776 22948 ft 346 kts 100°
2026-04-21 18:31 55.84589 10.95924 22517 ft 342 kts 101°
2026-04-21 18:32 55.84018 10.99951 22080 ft 338 kts 102°
2026-04-21 18:32 55.83416 11.03965 21647 ft 333 kts 102°
2026-04-21 18:32 55.82809 11.07926 21205 ft 330 kts 103°
2026-04-21 18:32 55.82208 11.11853 20766 ft 327 kts 103°
2026-04-21 18:33 55.81816 11.14428 20468 ft 325 kts 102°
2026-04-21 18:33 55.81233 11.18302 20009 ft 323 kts 102°
2026-04-21 18:33 55.80656 11.22156 19553 ft 322 kts 102°
2026-04-21 18:33 55.80084 11.25992 19081 ft 321 kts 102°
2026-04-21 18:34 55.79516 11.29825 18618 ft 320 kts 103°
2026-04-21 18:34 55.78951 11.33600 18386 ft 311 kts 102°
2026-04-21 18:34 55.78398 11.37278 18089 ft 305 kts 102°
2026-04-21 18:34 55.77855 11.40893 17823 ft 301 kts 102°
2026-04-21 18:35 55.77376 11.44507 17552 ft 298 kts 96°
2026-04-21 18:35 55.77169 11.48154 17287 ft 296 kts 93°
2026-04-21 18:35 55.76974 11.51752 17020 ft 296 kts 94°
2026-04-21 18:35 55.76774 11.55383 16747 ft 295 kts 94°
2026-04-21 18:36 55.76573 11.58992 16376 ft 294 kts 94°
2026-04-21 18:36 55.76371 11.62606 15959 ft 293 kts 94°
2026-04-21 18:36 55.76167 11.66208 15570 ft 293 kts 94°
2026-04-21 18:36 55.75961 11.69810 15163 ft 293 kts 94°
2026-04-21 18:37 55.75751 11.73420 14757 ft 294 kts 94°
2026-04-21 18:37 55.75540 11.77032 14421 ft 292 kts 94°
2026-04-21 18:37 55.75330 11.80614 14041 ft 291 kts 94°
2026-04-21 18:37 55.75118 11.84191 13619 ft 291 kts 94°
2026-04-21 18:38 55.74913 11.87686 13407 ft 284 kts 94°
2026-04-21 18:38 55.74709 11.91172 13375 ft 283 kts 94°
2026-04-21 18:38 55.74506 11.94662 13382 ft 284 kts 94°
2026-04-21 18:38 55.74302 11.98159 13382 ft 284 kts 94°
2026-04-21 18:39 55.74094 12.01645 13384 ft 284 kts 94°
2026-04-21 18:39 55.73886 12.05139 13382 ft 284 kts 94°
2026-04-21 18:39 55.73680 12.08576 13382 ft 284 kts 94°
2026-04-21 18:39 55.73469 12.12068 13382 ft 284 kts 94°
2026-04-21 18:40 55.73257 12.15555 13380 ft 284 kts 94°
2026-04-21 18:40 55.73043 12.19046 13381 ft 284 kts 94°
2026-04-21 18:40 55.72899 12.21364 13236 ft 285 kts 94°
2026-04-21 18:40 55.72612 12.26017 12881 ft 282 kts 94°
2026-04-21 18:41 55.72401 12.29427 12586 ft 281 kts 94°
2026-04-21 18:41 55.72186 12.32881 12203 ft 281 kts 94°
2026-04-21 18:41 55.71967 12.36336 11818 ft 281 kts 94°
2026-04-21 18:41 55.71749 12.39782 11438 ft 281 kts 94°
2026-04-21 18:42 55.71533 12.43218 11071 ft 280 kts 94°
2026-04-21 18:42 55.71318 12.46657 10722 ft 279 kts 94°
2026-04-21 18:42 55.71250 12.50014 10571 ft 274 kts 82°
2026-04-21 18:42 55.71694 12.53275 10329 ft 271 kts 66°
2026-04-21 18:43 55.72528 12.56272 10070 ft 270 kts 62°
2026-04-21 18:43 55.73382 12.59240 9796 ft 269 kts 62°
2026-04-21 18:43 55.74232 12.62195 9523 ft 268 kts 62°
2026-04-21 18:43 55.75297 12.64895 9370 ft 267 kts 47°
2026-04-21 18:44 55.76677 12.67119 9374 ft 268 kts 41°
2026-04-21 18:44 55.78085 12.69305 9376 ft 268 kts 42°
2026-04-21 18:44 55.79464 12.71438 9375 ft 256 kts 41°
2026-04-21 18:44 55.80782 12.73482 9380 ft 248 kts 42°
2026-04-21 18:45 55.82072 12.75511 9182 ft 247 kts 42°
2026-04-21 18:45 55.83342 12.77541 8920 ft 244 kts 43°
2026-04-21 18:45 55.84579 12.79536 8662 ft 242 kts 43°
2026-04-21 18:45 55.85826 12.81558 8240 ft 246 kts 43°
2026-04-21 18:46 55.87107 12.83644 7710 ft 251 kts 43°
2026-04-21 18:46 55.88383 12.85726 7215 ft 248 kts 43°
2026-04-21 18:46 55.89648 12.87785 6723 ft 245 kts 43°
2026-04-21 18:46 55.90884 12.89807 6375 ft 235 kts 43°
2026-04-21 18:47 55.92058 12.91736 6133 ft 222 kts 42°
2026-04-21 18:47 55.93058 12.93708 5920 ft 210 kts 62°
2026-04-21 18:47 55.93309 12.96223 5748 ft 209 kts 96°
2026-04-21 18:47 55.92677 12.98510 5619 ft 209 kts 130°
2026-04-21 18:48 55.91412 12.99745 5480 ft 213 kts 168°
2026-04-21 18:48 55.89903 12.99558 5375 ft 225 kts 191°
2026-04-21 18:48 55.88375 12.98831 5250 ft 228 kts 195°
2026-04-21 18:48 55.86850 12.98028 5122 ft 228 kts 195°
2026-04-21 18:49 55.85308 12.97208 4999 ft 235 kts 195°
2026-04-21 18:49 55.83732 12.96376 4866 ft 237 kts 195°
2026-04-21 18:49 55.82686 12.95827 4775 ft 237 kts 195°
2026-04-21 18:49 55.80615 12.94688 4523 ft 233 kts 204°
2026-04-21 18:50 55.79328 12.93051 4397 ft 223 kts 223°
2026-04-21 18:50 55.78192 12.91205 4176 ft 220 kts 224°
2026-04-21 18:50 55.77050 12.89381 3904 ft 220 kts 223°
2026-04-21 18:50 55.75904 12.87579 3597 ft 220 kts 223°
2026-04-21 18:51 55.74752 12.85777 3299 ft 221 kts 223°
2026-04-21 18:51 55.73619 12.84007 2998 ft 212 kts 223°
2026-04-21 18:51 55.72539 12.82323 2717 ft 202 kts 224°
2026-04-21 18:51 55.71526 12.80741 2472 ft 192 kts 224°
2026-04-21 18:52 55.70549 12.79218 2194 ft 180 kts 224°
2026-04-21 18:52 55.69639 12.77799 1954 ft 171 kts 224°
2026-04-21 18:52 55.68762 12.76434 1743 ft 159 kts 225°
2026-04-21 18:52 55.67969 12.75200 1506 ft 147 kts 225°
2026-04-21 18:53 55.67216 12.74028 1315 ft 142 kts 225°
2026-04-21 18:53 55.66480 12.72882 1121 ft 140 kts 225°
2026-04-21 18:53 55.65752 12.71750 920 ft 138 kts 225°
2026-04-21 18:53 55.65034 12.70630 721 ft 137 kts 224°
2026-04-21 18:54 55.64329 12.69511 576 ft 135 kts 222°
2026-04-21 18:54 55.63624 12.68419 374 ft 134 kts 221°
2026-04-21 18:54 55.62934 12.67354 176 ft 133 kts 220°
2026-04-21 18:54 55.62237 12.66279 28 ft 127 kts 220°
2026-04-21 18:55 55.61835 12.65661 29 ft 101 kts 221°
2026-04-21 18:55 55.61359 12.64921 26 ft 35 kts 221°
2026-04-21 18:55 55.61266 12.64656 24 ft 25 kts 250°
2026-04-21 18:55 55.61210 12.64364 24 ft 20 kts 254°
2026-04-21 18:56 55.61216 12.64138 24 ft 20 kts 314°
2026-04-21 18:56 55.61344 12.64186 25 ft 22 kts 32°
2026-04-21 18:56 55.61485 12.64344 24 ft 25 kts 31°
2026-04-21 18:56 55.61628 12.64510 26 ft 24 kts 34°
2026-04-21 18:57 55.61739 12.64637 24 ft 19 kts 31°
2026-04-21 18:57 55.61860 12.64776 24 ft 23 kts 33°
2026-04-21 18:57 55.61968 12.64900 24 ft 16 kts 33°
2026-04-21 18:57 55.62069 12.65017 24 ft 19 kts 33°
2026-04-21 18:58 55.62146 12.65107 26 ft 13 kts 32°
2026-04-21 18:58 55.62227 12.65190 24 ft 11 kts 19°
2026-04-21 18:58 55.62316 12.65206 24 ft 14 kts
2026-04-21 18:58 55.62419 12.65201 24 ft 13 kts 358°
2026-04-21 18:59 55.62514 12.65184 25 ft 10 kts 360°
2026-04-21 18:59 55.62591 12.65183 24 ft 13 kts
2026-04-21 18:59 55.62665 12.65189 24 ft 10 kts 359°
2026-04-21 18:59 55.62726 12.65181 26 ft 6 kts 355°
2026-04-21 19:00 55.62735 12.65180 24 ft 0 kts 354°
2026-04-21 19:00 55.62736 12.65179 24 ft 0 kts 354°